Flag for Estonia Weather past 2 weeks in Tartu, Estonia

Now
37 °F

Overcast.


Feels Like: 33 °F
Forecast: 31 / 44 °F
Wind: 6 mph from Northwest

Location: Tartu/Ulenurme

Current Time: Apr 18, 2015 at 11:20:19 PM

Latest Report: Apr 18, 2015 at 10:50 PM


Visibility: N/A

Pressure: 29.92 "Hg

Humidity: 56%

Dew point: 23 °F

Location of TartuLocation

Historic Weather in Tartu — Graph

°F

Tartu temperature yesterday

Maximum temperature yesterday: 43 °F (at 1:50 PM)
Minimum temperature yesterday: 34 °F (at 2:50 PM)
Average temperature yesterday: 38 °F

Past Weeks' High & Low Weather Summary

 TemperatureHumidityPressure
High64 °F (Apr 12, 11:50 AM)100% (Apr 5, 4:50 AM)30.24 "Hg (Apr 5, 4:50 AM)
Low32 °F (Apr 4, 11:50 PM)30% (Apr 9, 3:50 PM)29.15 "Hg (Apr 16, 4:50 AM)
Average40 °F73%29.81 "Hg
* Reported Apr 3 9:50 PM — Apr 18 9:50 PM, Tartu, Weather by CustomWeather, © 2015

Note: Actual official high and low records may vary slightly from our data, if they occured in-between our weather recording intervals... More about our weather records

Advertising

Tartu weather history for previous 24 hours

 ConditionsComfort  
Time TempWeatherWind HumidityBarometerVisibility
9:50 PM
Sat, Apr 18
39 °FOvercast.5 mph52%29.89 "HgN/A
8:50 PM39 °FScattered clouds.5 mph48%29.89 "HgN/A
7:50 PM41 °FQuite cool.7 mph42%29.86 "HgN/A
6:50 PM43 °FSunny.9 mph36%29.86 "Hg10 mi
5:50 PM45 °FPassing clouds.13 mph37%29.86 "HgN/A
4:50 PM45 °FScattered clouds.10 mph49%29.86 "HgN/A
3:50 PM45 °FScattered clouds.12 mph46%29.86 "HgN/A
2:50 PM45 °FPartly sunny.12 mph49%29.89 "HgN/A
1:50 PM41 °FPartly sunny.9 mph57%29.89 "HgN/A
12:50 PM39 °FPartly sunny.10 mph61%29.92 "HgN/A
11:50 AM39 °FOvercast.9 mph56%29.92 "HgN/A
10:50 AM39 °FMore clouds than sun.12 mph61%29.92 "HgN/A
9:50 AM39 °FPartly sunny.12 mph70%29.89 "HgN/A
8:50 AM37 °FPassing clouds.9 mph75%29.92 "HgN/A
7:50 AM36 °FPartly sunny.6 mph81%29.92 "HgN/A
6:50 AM36 °FPassing clouds.8 mph81%29.89 "HgN/A
5:50 AM36 °FPassing clouds.5 mph81%29.89 "HgN/A
4:50 AM36 °FMostly cloudy.6 mph87%29.89 "HgN/A
3:50 AM36 °FPassing clouds.7 mph87%29.89 "HgN/A
2:50 AM37 °FOvercast.8 mph81%29.86 "HgN/A
1:50 AM37 °FOvercast.8 mph81%29.86 "HgN/A
12:50 AM37 °FOvercast.9 mph81%29.86 "HgN/A
11:50 PM
Fri, Apr 17
39 °FOvercast.8 mph75%29.83 "HgN/A
Weather by CustomWeather, © 2015

See weather overviewHow to use our weather pages